Location: Newark
(50.8547°N, 2.7256°E)
Time: 13:39:09
(UTC+00:00)

Envisat - Pass Details

Date: 26 January 2020
Orbit: 764 x 766 km, 98.1° (Epoch: 24 February)

Event Time Altitude Azimuth Distance (km) Brightness Sun altitude
Rises 18:32:05 0° 198° (SSW) 3,222 6.6 -19.1°
Reaches altitude 10° 18:34:44 10° 210° (SSW) 2,301 5.9 -19.6°
Maximum altitude 18:38:59 27° 268° (W) 1,460 5.2 -20.2°
Drops below altitude 10° 18:43:16 10° 325° (NW) 2,315 5.9 -20.9°
Sets 18:45:56 0° 338° (NNW) 3,246 6.5 -21.3°
